Weather History for OAKB - April, 2014

Change the Weather History Date:

Thursday, April 17, 2014

  Actual Average Record
Temperature  
Mean Temperature 58 °F -  
Max Temperature 68 °F 72 °F - ()
Min Temperature 48 °F 46 °F - ()
Degree Days  
Heating Degree Days 7    
Growing Degree Days 8 (Base 50)    
Moisture  
Dew Point 30 °F    
Average Humidity 35    
Maximum Humidity 66    
Minimum Humidity 21    
Precipitation  
Precipitation 0.00 in 0.06 in - ()
Sea Level Pressure  
Sea Level Pressure 30.00 in    
Wind  
Wind Speed 4 mph ()    
Max Wind Speed 18 mph    
Max Gust Speed -    
Visibility 6.2 miles    
Events      
T = Trace of Precipitation, MM = Missing Value Source: Averaged Metar Reports

Daily Weather History Graph

Daily Weather History Graph

Search for Another Location

Airport or City:

Trip Planner

Search our weather history database for the weather conditions in past years. The results will help you decide how hot, cold, wet, or windy it might be!

Date:

Astronomy

Apr. 17, 2014 Rise Set
Actual Time 5:19 AM AFT 6:26 PM AFT
Civil Twilight 4:53 AM AFT 6:52 PM AFT
Nautical Twilight 4:22 AM AFT 7:23 PM AFT
Astronomical Twilight 3:50 AM AFT 7:55 PM AFT
Moon 8:40 PM AFT (4/17) 6:34 AM AFT (4/17)
Length of Visible Light 13h 58m
Length of Day
13h 06m
Waning Gibbous, 95% of the Moon is Illuminated
Apr 17
Waning Gibbous
Apr 22
Last Quarter
Apr 29
New
May 7
First Quarter
May 14
Full

Hourly Weather History & Observations

Time (AFT) Temp. Dew Point Humidity Pressure Visibility Wind Dir Wind Speed Gust Speed Precip Events Conditions
12:20 AM 57.2 °F 32.0 °F 38% 30.04 in 6.2 mi SW 2.3 mph - N/A   Scattered Clouds
1:20 AM 55.4 °F 33.8 °F 44% 30.04 in 6.2 mi NE 3.5 mph - N/A   Mostly Cloudy
2:20 AM 53.6 °F 37.4 °F 54% 30.01 in 6.2 mi WSW 2.3 mph - N/A   Mostly Cloudy
3:20 AM 51.8 °F 35.6 °F 54% 30.01 in 6.2 mi NNE 2.3 mph - N/A   Mostly Cloudy
4:20 AM 51.8 °F 35.6 °F 54% 30.01 in 6.2 mi Calm Calm - N/A   Scattered Clouds
5:20 AM 48.2 °F 37.4 °F 66% 30.01 in 6.2 mi SE 3.5 mph - N/A   Scattered Clouds
6:20 AM 51.8 °F 37.4 °F 58% 30.01 in 6.2 mi North 5.8 mph - N/A   Scattered Clouds
7:20 AM 59.0 °F 35.6 °F 42% 30.04 in 6.2 mi West 4.6 mph - N/A   Partly Cloudy
8:20 AM 62.6 °F 30.2 °F 30% 30.04 in - Variable 2.3 mph - N/A   Clear
9:20 AM 62.6 °F 30.2 °F 30% 30.04 in 6.2 mi East 6.9 mph - N/A   Partly Cloudy
10:20 AM 64.4 °F 32.0 °F 30% 30.04 in 6.2 mi ESE 5.8 mph - N/A   Scattered Clouds
11:20 AM 64.4 °F 26.6 °F 24% 30.01 in 6.2 mi Calm Calm - N/A   Scattered Clouds
12:20 PM 66.2 °F 30.2 °F 26% 29.98 in 6.2 mi East 8.1 mph - N/A   Scattered Clouds
1:20 PM 66.2 °F 30.2 °F 26% 29.98 in 6.2 mi ESE 8.1 mph - N/A   Scattered Clouds
2:20 PM 68.0 °F 26.6 °F 21% 29.95 in 6.2 mi East 4.6 mph - N/A   Scattered Clouds
3:20 PM 66.2 °F 26.6 °F 23% 29.95 in 6.2 mi NNE 8.1 mph - N/A   Scattered Clouds
4:20 PM 64.4 °F 26.6 °F 24% 29.95 in 6.2 mi NNE 5.8 mph - N/A   Mostly Cloudy
5:20 PM 64.4 °F 28.4 °F 26% 29.95 in - North - - N/A   Mostly Cloudy
6:20 PM 62.6 °F 24.8 °F 24% 29.95 in 6.2 mi North 18.4 mph - N/A   Mostly Cloudy
7:20 PM 60.8 °F 24.8 °F 25% 29.98 in 6.2 mi North 12.7 mph - N/A   Mostly Cloudy
8:20 PM 60.8 °F 24.8 °F 25% 30.01 in 6.2 mi North 10.4 mph - N/A   Mostly Cloudy
9:20 PM 59.0 °F 24.8 °F 27% 30.01 in - North 5.8 mph - N/A   Clear
10:20 PM 55.4 °F 24.8 °F 31% 30.01 in - North 13.8 mph - N/A   Clear
11:20 PM 53.6 °F 26.6 °F 35% 30.01 in 6.2 mi West 4.6 mph - N/A   Scattered Clouds